STARLINK-1873 (47158 NORAD) Tracking and Keplerian Element Data

This shows tracking and keplerian element data for the satellite.

Feedback or suggestion? Click here.




ElementValue
Catalog47158
NameSTARLINK-1873
Epoch Orbit1613
Epoch Day62.91667824
Epoch Year2021
RAAN234.8622
Inclination53.0405
Eccentricity0.0001409
Argument of Perigee87.0147
Mean Anonmoly345.9274
Mean Motion15.06466738
Decay Rate-0.00084637
L11 47158U 20088AN 21062.91667824 -.00084637 00000-0 -57207-2 0 9990
L22 47158 53.0405 234.8622 0001409 87.0147 345.9274 15.06466738 16133

Live tracking and technical data element details for STARLINK-1873 (NORAD 47158). STARLINK-1873 can be tracked NOW for your location showing map with azimuth and elevation plus other details from your city location.

Track the satellite on the map from your city or location and see movement details for azimuth, elevation, latitude, longitude, range, height, and movement on the map or in text.







IsCatalogInMostPopularTable: catalog: 47158, numindb: 44
Update: records affected: 1



GetName: 47158 STARLINK-1873

Hit Count: updated at: Fri, 05 Mar 2021 07:36:28 GMT